20040720,000001,613457,33.454333,-119.326500,16.927,33.511,NaN,NaN
20040720,000031,613487,33.453833,-119.327833,16.912,33.511,NaN,NaN
20040720,000101,613517,33.453333,-119.329167,16.904,33.510,NaN,NaN
20040720,000131,613547,33.452833,-119.330333,16.920,33.510,NaN,NaN
20040720,000201,613577,33.452333,-119.331667,16.891,33.512,NaN,NaN
20040720,000231,613607,33.451833,-119.332833,16.870,33.508,NaN,NaN
20040720,000301,613637,33.451333,-119.334000,16.814,33.503,NaN,NaN
20040720,000331,613667,33.450833,-119.335333,16.792,33.498,NaN,NaN
20040720,000401,613697,33.450333,-119.336500,16.830,33.500,NaN,NaN
20040720,000431,613727,33.449833,-119.337833,16.860,33.501,NaN,NaN
20040720,000501,613757,33.449333,-119.339000,16.871,33.498,NaN,NaN
20040720,000531,613787,33.448833,-119.340333,16.958,33.500,NaN,NaN
20040720,000601,613817,33.448333,-119.341500,17.015,33.507,NaN,NaN
20040720,000631,613847,33.447833,-119.342833,16.987,33.506,NaN,NaN
20040720,000701,613877,33.447333,-119.344000,16.960,33.505,NaN,NaN
20040720,000731,613907,33.446833,-119.345333,16.974,33.507,NaN,NaN
20040720,000801,613937,33.446333,-119.346500,16.950,33.502,NaN,NaN
20040720,000831,613967,33.445833,-119.347833,17.010,33.504,NaN,NaN
20040720,000901,613997,33.445333,-119.349167,17.012,33.504,NaN,NaN
20040720,000931,614027,33.444833,-119.350333,16.995,33.504,NaN,NaN
20040720,001001,614057,33.444333,-119.351667,16.980,33.503,NaN,NaN
20040720,001031,614087,33.443833,-119.352833,16.988,33.501,NaN,NaN
20040720,001101,614117,33.443167,-119.354167,16.998,33.499,NaN,NaN
20040720,001131,614147,33.442667,-119.355333,17.059,33.500,NaN,NaN
20040720,001201,614177,33.442167,-119.356667,17.156,33.506,NaN,NaN
20040720,001231,614207,33.441667,-119.358000,17.212,33.509,NaN,NaN
20040720,001301,614237,33.441167,-119.359167,17.244,33.511,NaN,NaN
20040720,001331,614267,33.440667,-119.360500,17.272,33.512,NaN,NaN
20040720,001401,614297,33.440000,-119.361833,17.259,33.512,NaN,NaN
20040720,001431,614327,33.439500,-119.363000,17.225,33.513,NaN,NaN
20040720,001501,614357,33.439000,-119.364333,17.254,33.510,NaN,NaN
20040720,001531,614387,33.438500,-119.365667,17.259,33.511,NaN,NaN
20040720,001601,614417,33.438000,-119.367000,17.203,33.504,NaN,NaN
20040720,001631,614447,33.437500,-119.368167,17.251,33.504,NaN,NaN
20040720,001701,614477,33.436833,-119.369500,17.305,33.509,NaN,NaN
20040720,001731,614507,33.436333,-119.370833,17.310,33.513,NaN,NaN
20040720,001801,614537,33.435833,-119.372167,17.319,33.511,1.765,NaN
20040720,001831,614567,33.435333,-119.373500,17.323,33.513,NaN,NaN
20040720,001901,614597,33.434833,-119.374667,17.297,33.513,NaN,NaN
20040720,001931,614627,33.434667,-119.376000,17.326,33.508,NaN,NaN
20040720,002001,614657,33.434167,-119.377167,17.374,33.507,NaN,NaN
20040720,002031,614687,33.433667,-119.378333,17.387,33.510,NaN,NaN
20040720,002101,614717,33.433167,-119.379667,17.392,33.510,NaN,NaN
20040720,002131,614747,33.432667,-119.380833,17.399,33.509,NaN,NaN
20040720,002201,614777,33.432167,-119.382167,17.409,33.508,NaN,NaN
20040720,002231,614807,33.431667,-119.383333,17.387,33.509,NaN,NaN
20040720,002301,614837,33.431167,-119.384667,17.370,33.505,NaN,NaN
20040720,002331,614867,33.430667,-119.386000,17.367,33.503,NaN,NaN
20040720,002401,614897,33.430167,-119.387167,17.377,33.504,NaN,NaN
20040720,002431,614927,33.429667,-119.388500,17.390,33.504,NaN,NaN
20040720,002501,614957,33.429167,-119.389833,17.405,33.504,NaN,NaN
20040720,002531,614987,33.428667,-119.391000,17.438,33.501,NaN,NaN
20040720,002601,615017,33.428167,-119.392333,17.448,33.504,NaN,NaN
20040720,002631,615047,33.427667,-119.393667,17.441,33.502,NaN,NaN
20040720,002701,615077,33.427000,-119.395000,17.427,33.501,NaN,NaN
20040720,002731,615107,33.426500,-119.396167,17.433,33.501,NaN,NaN
20040720,002801,615137,33.426000,-119.397500,17.437,33.500,NaN,NaN
20040720,002831,615167,33.425500,-119.398833,17.445,33.497,NaN,NaN
20040720,002901,615197,33.425000,-119.400000,17.453,33.499,NaN,NaN
20040720,002931,615227,33.424500,-119.401333,17.466,33.497,NaN,NaN
20040720,003001,615257,33.424000,-119.402500,17.468,33.498,NaN,NaN
20040720,003031,615287,33.423500,-119.403667,17.463,33.499,NaN,NaN
20040720,003101,615317,33.423000,-119.405000,17.448,33.499,NaN,NaN
20040720,003131,615347,33.422500,-119.406167,17.380,33.496,NaN,NaN
20040720,003201,615377,33.422167,-119.407333,17.355,33.493,NaN,NaN
20040720,003231,615407,33.421667,-119.408667,17.194,33.492,NaN,NaN
20040720,003301,615437,33.421167,-119.409833,17.258,33.487,NaN,NaN
20040720,003331,615467,33.420667,-119.411167,17.328,33.490,NaN,NaN
20040720,003401,615497,33.420167,-119.412333,17.357,33.491,NaN,NaN
20040720,003431,615527,33.419667,-119.413500,17.356,33.492,NaN,NaN
20040720,003501,615557,33.419167,-119.414667,17.370,33.493,NaN,NaN
20040720,003531,615587,33.418667,-119.415833,17.344,33.495,NaN,NaN
20040720,003601,615617,33.418167,-119.417167,17.313,33.492,NaN,NaN
20040720,003631,615647,33.417833,-119.418333,17.287,33.494,NaN,NaN
20040720,003701,615677,33.417333,-119.419500,17.270,33.491,NaN,NaN
20040720,003731,615707,33.416833,-119.420667,17.210,33.493,NaN,NaN
20040720,003801,615737,33.416333,-119.421833,17.174,33.489,NaN,NaN
20040720,003831,615767,33.415833,-119.423000,17.086,33.495,NaN,NaN
20040720,003901,615797,33.415333,-119.424167,16.955,33.487,NaN,NaN
20040720,003931,615827,33.415000,-119.425333,16.890,33.480,NaN,NaN
20040720,004001,615857,33.414500,-119.426667,16.829,33.481,NaN,NaN
20040720,004031,615887,33.414000,-119.427833,16.800,33.468,NaN,NaN
20040720,004101,615917,33.413500,-119.428833,16.809,33.472,NaN,NaN
20040720,004131,615947,33.413000,-119.430000,16.871,33.473,NaN,NaN
20040720,004201,615977,33.412667,-119.431167,16.909,33.477,NaN,NaN
20040720,004231,616007,33.412167,-119.432333,16.950,33.474,NaN,NaN
20040720,004301,616037,33.411667,-119.433500,17.047,33.473,NaN,NaN
20040720,004331,616067,33.411167,-119.434667,17.110,33.479,NaN,NaN
20040720,004401,616097,33.410667,-119.435833,17.089,33.479,NaN,NaN
20040720,004431,616127,33.410167,-119.437000,17.088,33.476,NaN,NaN
20040720,004501,616157,33.409667,-119.438000,17.128,33.476,NaN,NaN
20040720,004531,616187,33.409333,-119.439167,17.121,33.475,NaN,NaN
20040720,004601,616217,33.408833,-119.440333,17.100,33.479,NaN,NaN
20040720,004631,616247,33.408333,-119.441500,17.144,33.476,NaN,NaN
20040720,004701,616277,33.408000,-119.442667,17.210,33.477,NaN,NaN
20040720,004731,616307,33.407500,-119.444000,17.224,33.477,NaN,NaN
20040720,004801,616337,33.407000,-119.445167,17.219,33.477,1.944,NaN
20040720,004831,616367,33.406500,-119.446333,17.247,33.475,NaN,NaN
20040720,004901,616397,33.406000,-119.447500,17.266,33.476,NaN,NaN
20040720,004931,616427,33.405667,-119.448833,17.242,33.479,NaN,NaN
20040720,005001,616457,33.405167,-119.450000,17.192,33.479,NaN,NaN
20040720,005031,616487,33.404667,-119.451167,17.162,33.478,NaN,NaN
20040720,005101,616517,33.404167,-119.452333,17.129,33.474,NaN,NaN
20040720,005131,616547,33.403667,-119.453333,17.114,33.473,NaN,NaN
20040720,005201,616577,33.403333,-119.454500,17.114,33.469,NaN,NaN
20040720,005231,616607,33.402833,-119.455667,17.061,33.471,NaN,NaN
20040720,005301,616637,33.402500,-119.456833,17.034,33.468,NaN,NaN
20040720,005331,616667,33.402000,-119.458000,17.093,33.464,NaN,NaN
20040720,005401,616697,33.401500,-119.459167,17.189,33.464,NaN,NaN
20040720,005431,616727,33.401000,-119.460333,17.219,33.468,NaN,NaN
20040720,005501,616757,33.400500,-119.461500,17.264,33.465,NaN,NaN
20040720,005531,616787,33.400167,-119.462500,17.297,33.464,NaN,NaN
20040720,005601,616817,33.399667,-119.463667,17.337,33.478,NaN,NaN
20040720,005631,616847,33.399167,-119.464833,17.387,33.483,NaN,NaN
20040720,005701,616877,33.398667,-119.466000,17.448,33.485,NaN,NaN
20040720,005731,616907,33.398333,-119.467000,17.480,33.483,NaN,NaN
20040720,005801,616937,33.397833,-119.468167,17.527,33.483,NaN,NaN
20040720,005831,616967,33.397333,-119.469500,17.541,33.486,NaN,NaN
20040720,005901,616997,33.396833,-119.470667,17.551,33.485,NaN,NaN
20040720,005931,617027,33.396500,-119.471833,17.574,33.488,NaN,NaN
20040720,010001,617057,33.395833,-119.473167,17.572,33.494,NaN,NaN
20040720,010031,617087,33.395333,-119.474333,17.489,33.496,NaN,NaN
20040720,010101,617117,33.394833,-119.475500,17.437,33.491,NaN,NaN
20040720,010131,617147,33.394333,-119.476667,17.409,33.487,NaN,NaN
20040720,010201,617177,33.394000,-119.477833,17.395,33.486,NaN,NaN
20040720,010231,617207,33.393500,-119.479000,17.415,33.485,NaN,NaN
20040720,010301,617237,33.393000,-119.480167,17.474,33.482,NaN,NaN
20040720,010331,617267,33.392500,-119.481333,17.531,33.482,NaN,NaN
20040720,010401,617297,33.392000,-119.482500,17.508,33.485,NaN,NaN
20040720,010431,617327,33.391500,-119.483833,17.433,33.484,NaN,NaN
20040720,010501,617357,33.391167,-119.484833,17.431,33.481,NaN,NaN
20040720,010531,617387,33.390667,-119.486000,17.463,33.481,NaN,NaN
20040720,010601,617417,33.390167,-119.487167,17.471,33.484,NaN,NaN
20040720,010631,617447,33.389667,-119.488333,17.478,33.484,NaN,NaN
20040720,010701,617477,33.389167,-119.489500,17.511,33.482,NaN,NaN
20040720,010731,617507,33.388667,-119.490500,17.517,33.483,NaN,NaN
20040720,010801,617537,33.388167,-119.491833,17.469,33.484,NaN,NaN
20040720,010831,617567,33.387833,-119.493000,17.407,33.485,NaN,NaN
20040720,010901,617597,33.387333,-119.494333,17.387,33.483,NaN,NaN
20040720,010931,617627,33.386833,-119.495500,17.400,33.481,NaN,NaN
20040720,011001,617657,33.386333,-119.496500,17.416,33.480,NaN,NaN
20040720,011031,617687,33.385833,-119.497667,17.406,33.479,NaN,NaN
20040720,011101,617717,33.385333,-119.498833,17.421,33.479,NaN,NaN
20040720,011131,617747,33.384833,-119.500000,17.402,33.478,NaN,NaN
20040720,011201,617777,33.384333,-119.501000,17.419,33.479,NaN,NaN
20040720,011231,617807,33.384000,-119.502167,17.347,33.483,NaN,NaN
20040720,011301,617837,33.383500,-119.503333,17.182,33.479,NaN,NaN
20040720,011331,617867,33.383000,-119.504500,17.086,33.488,NaN,NaN
20040720,011401,617897,33.382500,-119.505667,17.027,33.471,NaN,NaN
20040720,011431,617927,33.382000,-119.506667,17.051,33.471,NaN,NaN
20040720,011501,617957,33.381500,-119.507833,17.073,33.470,NaN,NaN
20040720,011531,617987,33.381167,-119.508833,17.094,33.469,NaN,NaN
20040720,011601,618017,33.380667,-119.510000,17.068,33.469,NaN,NaN
20040720,011631,618047,33.380167,-119.511167,17.031,33.468,NaN,NaN
20040720,011701,618077,33.379667,-119.512333,16.923,33.467,NaN,NaN
20040720,011731,618107,33.379333,-119.513500,16.905,33.466,NaN,NaN
20040720,011801,618137,33.378833,-119.514667,16.905,33.464,2.413,NaN
20040720,011831,618167,33.378333,-119.515833,16.924,33.461,NaN,NaN
20040720,011901,618197,33.378000,-119.517000,16.968,33.460,NaN,NaN
20040720,011931,618227,33.377500,-119.518167,16.996,33.461,NaN,NaN
20040720,012001,618257,33.377000,-119.519500,17.041,33.460,NaN,NaN
20040720,012031,618287,33.376500,-119.520500,17.047,33.462,NaN,NaN
20040720,012101,618317,33.376000,-119.521833,17.065,33.462,NaN,NaN
20040720,012131,618347,33.375500,-119.523000,17.098,33.462,NaN,NaN
20040720,012201,618377,33.375167,-119.524000,17.123,33.463,NaN,NaN
20040720,012231,618407,33.374667,-119.525167,17.128,33.463,NaN,NaN
20040720,012301,618437,33.374167,-119.526500,17.091,33.465,NaN,NaN
20040720,012331,618467,33.373667,-119.527667,17.088,33.461,NaN,NaN
20040720,012401,618497,33.373333,-119.528833,17.107,33.464,NaN,NaN
20040720,012431,618527,33.372833,-119.529833,17.039,33.465,NaN,NaN
20040720,012501,618557,33.372333,-119.531000,17.034,33.465,NaN,NaN
20040720,012531,618587,33.372000,-119.532167,17.052,33.463,NaN,NaN
20040720,012601,618617,33.371500,-119.533333,17.072,33.463,NaN,NaN
20040720,012631,618647,33.371000,-119.534500,17.080,33.465,NaN,NaN
20040720,012701,618677,33.370500,-119.535667,17.097,33.464,NaN,NaN
20040720,012731,618707,33.370000,-119.536833,17.108,33.466,NaN,NaN
20040720,012801,618737,33.369500,-119.538000,17.112,33.465,NaN,NaN
20040720,012831,618767,33.369167,-119.539000,17.112,33.465,NaN,NaN
20040720,012901,618797,33.368667,-119.540167,17.098,33.464,NaN,NaN
20040720,012931,618827,33.368333,-119.541333,17.098,33.463,NaN,NaN
20040720,013001,618857,33.367833,-119.542500,17.115,33.462,NaN,NaN
20040720,013031,618887,33.367500,-119.543667,17.127,33.460,NaN,NaN
20040720,013101,618917,33.367000,-119.544833,17.141,33.460,NaN,NaN
20040720,013131,618947,33.366667,-119.546000,17.155,33.461,NaN,NaN
20040720,013201,618977,33.366167,-119.547167,17.175,33.462,NaN,NaN
20040720,013231,619007,33.365833,-119.548500,17.192,33.461,NaN,NaN
20040720,013301,619037,33.365500,-119.549667,17.202,33.462,NaN,NaN
20040720,013331,619067,33.365000,-119.551000,17.102,33.462,NaN,NaN
20040720,013401,619097,33.364500,-119.552167,17.035,33.460,NaN,NaN
20040720,013431,619127,33.364167,-119.553500,16.985,33.464,NaN,NaN
20040720,013501,619157,33.363667,-119.554667,16.957,33.462,NaN,NaN
20040720,013531,619187,33.363333,-119.556000,16.949,33.459,NaN,NaN
20040720,013601,619217,33.362833,-119.557167,16.959,33.457,NaN,NaN
20040720,013631,619247,33.362500,-119.558333,16.958,33.455,NaN,NaN
20040720,013701,619277,33.362000,-119.559500,16.957,33.457,NaN,NaN
20040720,013731,619307,33.361667,-119.560833,16.909,33.455,NaN,NaN
20040720,013801,619337,33.361167,-119.562000,16.871,33.457,NaN,NaN
20040720,013831,619367,33.360833,-119.563333,16.878,33.458,NaN,NaN
20040720,013901,619397,33.360333,-119.564500,16.862,33.458,NaN,NaN
20040720,013931,619427,33.360000,-119.565833,16.852,33.457,NaN,NaN
20040720,014001,619457,33.359500,-119.567000,16.850,33.456,NaN,NaN
20040720,014031,619487,33.359000,-119.568333,16.836,33.453,NaN,NaN
20040720,014101,619517,33.358667,-119.569667,16.809,33.455,NaN,NaN
20040720,014131,619547,33.358167,-119.570833,16.778,33.452,NaN,NaN
20040720,014201,619577,33.357833,-119.572167,16.761,33.454,NaN,NaN
20040720,014231,619607,33.357333,-119.573333,16.753,33.454,NaN,NaN
20040720,014301,619637,33.356833,-119.574667,16.755,33.454,NaN,NaN
20040720,014331,619667,33.356500,-119.576000,16.763,33.468,NaN,NaN
20040720,014401,619697,33.356000,-119.577167,16.752,33.468,NaN,NaN
20040720,014431,619727,33.355667,-119.578333,16.747,33.468,NaN,NaN
20040720,014501,619757,33.355167,-119.579667,16.730,33.467,NaN,NaN
20040720,014531,619787,33.354667,-119.580833,16.716,33.467,NaN,NaN
20040720,014601,619817,33.354333,-119.582167,16.694,33.464,NaN,NaN
20040720,014631,619847,33.353833,-119.583333,16.676,33.465,NaN,NaN
20040720,014701,619877,33.353333,-119.584667,16.651,33.466,NaN,NaN
20040720,014731,619907,33.352833,-119.586000,16.625,33.464,NaN,NaN
20040720,014801,619937,33.352333,-119.587167,16.604,33.462,3.320,NaN
20040720,014831,619967,33.351833,-119.588500,16.565,33.462,NaN,NaN
20040720,014901,619997,33.351333,-119.589833,16.516,33.457,NaN,NaN
20040720,014931,620027,33.350833,-119.591000,16.478,33.460,NaN,NaN
20040720,015001,620057,33.350500,-119.592167,16.445,33.459,NaN,NaN
20040720,015031,620087,33.350000,-119.593333,16.418,33.456,NaN,NaN
20040720,015101,620117,33.349500,-119.594667,16.395,33.456,NaN,NaN
20040720,015131,620147,33.349000,-119.595833,16.352,33.456,NaN,NaN
20040720,015201,620177,33.348500,-119.597167,16.331,33.451,NaN,NaN
20040720,015231,620207,33.348000,-119.598500,16.314,33.451,NaN,NaN
20040720,015301,620237,33.347500,-119.599667,16.245,33.453,NaN,NaN
20040720,015331,620267,33.347000,-119.601000,16.253,33.447,NaN,NaN
20040720,015401,620297,33.346500,-119.602333,16.261,33.447,NaN,NaN
20040720,015431,620327,33.346167,-119.603500,16.243,33.446,NaN,NaN
20040720,015501,620357,33.345500,-119.604833,16.191,33.453,NaN,NaN
20040720,015531,620387,33.345000,-119.606000,16.102,33.451,NaN,NaN
20040720,015601,620417,33.344667,-119.607167,16.076,33.445,NaN,NaN
20040720,015631,620447,33.344167,-119.608500,16.085,33.433,NaN,NaN
20040720,015701,620477,33.343667,-119.609667,16.091,33.440,NaN,NaN
20040720,015731,620507,33.343000,-119.610833,16.121,33.442,NaN,NaN
20040720,015801,620537,33.342500,-119.612167,16.107,33.443,NaN,NaN
20040720,015831,620567,33.342167,-119.613333,16.112,33.437,NaN,NaN
20040720,015901,620597,33.341667,-119.614500,16.142,33.445,NaN,NaN
20040720,015931,620627,33.341167,-119.615833,16.112,33.443,NaN,NaN
20040720,020001,620657,33.340667,-119.617000,16.081,33.443,NaN,NaN
20040720,020031,620687,33.340167,-119.618333,16.059,33.440,NaN,NaN
20040720,020101,620717,33.339667,-119.619500,16.064,33.438,NaN,NaN
20040720,020131,620747,33.339167,-119.620833,16.136,33.436,NaN,NaN
20040720,020201,620777,33.338667,-119.622000,16.206,33.442,NaN,NaN
20040720,020231,620807,33.338167,-119.623167,16.212,33.442,NaN,NaN
20040720,020301,620837,33.337667,-119.624500,16.228,33.444,NaN,NaN
20040720,020331,620867,33.337167,-119.625667,16.200,33.443,NaN,NaN
20040720,020401,620897,33.336667,-119.626833,16.169,33.441,NaN,NaN
20040720,020431,620927,33.336167,-119.628000,16.182,33.440,NaN,NaN
20040720,020501,620957,33.335833,-119.629333,16.202,33.441,NaN,NaN
20040720,020531,620987,33.335167,-119.630500,16.186,33.441,NaN,NaN
20040720,020601,621017,33.334833,-119.631833,16.182,33.442,NaN,NaN
20040720,020631,621047,33.334333,-119.633000,16.172,33.444,NaN,NaN
20040720,020701,621077,33.333833,-119.634167,16.197,33.442,NaN,NaN
20040720,020731,621107,33.333333,-119.635333,16.183,33.447,NaN,NaN
20040720,020801,621137,33.332833,-119.636667,16.180,33.450,NaN,NaN
20040720,020831,621167,33.332333,-119.637833,16.172,33.449,NaN,NaN
20040720,020901,621197,33.332000,-119.639167,16.186,33.448,NaN,NaN
20040720,020931,621227,33.331500,-119.640333,16.184,33.450,NaN,NaN
20040720,021001,621257,33.331000,-119.641500,16.177,33.451,NaN,NaN
20040720,021031,621287,33.330500,-119.642833,16.158,33.450,NaN,NaN
20040720,021101,621317,33.330000,-119.644167,16.134,33.453,NaN,NaN
20040720,021131,621347,33.329500,-119.645333,16.132,33.450,NaN,NaN
20040720,021201,621377,33.329000,-119.646667,16.152,33.450,NaN,NaN
20040720,021231,621407,33.328500,-119.647833,16.118,33.453,NaN,NaN
20040720,021301,621437,33.328000,-119.649167,16.068,33.448,NaN,NaN
20040720,021331,621467,33.327667,-119.650333,16.045,33.446,NaN,NaN
20040720,021401,621497,33.327167,-119.651667,16.004,33.449,NaN,NaN
20040720,021431,621527,33.326667,-119.652833,15.922,33.449,NaN,NaN
20040720,021501,621557,33.326167,-119.654000,15.869,33.444,NaN,NaN
20040720,021531,621587,33.325667,-119.655333,15.777,33.447,NaN,NaN
20040720,021601,621617,33.325333,-119.656500,15.759,33.444,NaN,NaN
20040720,021631,621647,33.324833,-119.657833,15.746,33.440,NaN,NaN
20040720,021701,621677,33.324333,-119.659167,15.775,33.439,NaN,NaN
20040720,021731,621707,33.323833,-119.660333,15.732,33.440,NaN,NaN
20040720,021801,621737,33.323500,-119.661500,15.690,33.443,7.783,NaN
20040720,021831,621767,33.323000,-119.662333,15.596,33.438,NaN,NaN
20040720,021901,621797,33.322833,-119.663167,15.519,33.440,NaN,NaN
20040720,021931,621827,33.322833,-119.663833,15.497,33.439,NaN,NaN
20040720,022001,621857,33.322833,-119.664500,15.471,33.440,NaN,NaN
20040720,022031,621887,33.322667,-119.664833,15.455,33.439,NaN,NaN
20040720,022101,621917,33.322500,-119.665000,15.450,33.438,NaN,NaN
20040720,022131,621947,33.322333,-119.665333,15.468,33.436,NaN,NaN
20040720,022201,621977,33.322167,-119.665500,15.454,33.440,NaN,NaN
20040720,022231,622007,33.322000,-119.665667,15.452,33.438,NaN,NaN
20040720,022301,622037,33.321833,-119.665833,15.463,33.436,NaN,NaN
20040720,022331,622067,33.321667,-119.665833,15.469,33.438,NaN,NaN
20040720,022401,622097,33.321500,-119.666000,15.469,33.438,NaN,NaN
20040720,022431,622127,33.321333,-119.666000,15.480,33.437,NaN,NaN
20040720,022501,622157,33.321167,-119.666167,15.502,33.436,NaN,NaN
20040720,022531,622187,33.321167,-119.666333,15.507,33.437,NaN,NaN
20040720,022601,622217,33.321167,-119.666333,15.504,33.438,NaN,NaN
20040720,022631,622247,33.321167,-119.666500,15.503,33.437,NaN,NaN
20040720,022701,622277,33.321167,-119.666667,15.475,33.439,NaN,NaN
20040720,022731,622307,33.321167,-119.666833,15.372,33.443,NaN,NaN
20040720,022801,622337,33.321167,-119.666833,15.376,33.437,NaN,NaN
20040720,022831,622367,33.321167,-119.666833,15.420,33.435,NaN,NaN
20040720,022901,622397,33.321333,-119.666833,15.418,33.435,NaN,NaN
20040720,022931,622427,33.321333,-119.666833,15.412,33.434,NaN,NaN
20040720,023001,622457,33.321500,-119.666833,15.404,33.435,NaN,NaN
20040720,023031,622487,33.321500,-119.666833,15.391,33.435,NaN,NaN
20040720,023101,622517,33.321500,-119.666667,15.375,33.436,NaN,NaN
20040720,023131,622547,33.321500,-119.666667,15.375,33.434,NaN,NaN
20040720,023201,622577,33.321500,-119.666500,15.378,33.434,NaN,NaN
20040720,023231,622607,33.321500,-119.666333,15.402,33.433,NaN,NaN
20040720,023301,622637,33.321667,-119.666167,15.406,33.433,NaN,NaN
20040720,023331,622667,33.321667,-119.666000,15.408,33.435,NaN,NaN
20040720,023401,622697,33.321667,-119.666000,15.397,33.436,NaN,NaN
20040720,023431,622727,33.321667,-119.665833,15.354,33.439,NaN,NaN
20040720,023501,622757,33.321500,-119.665667,15.346,33.434,NaN,NaN
20040720,023531,622787,33.321500,-119.665667,15.368,33.434,NaN,NaN
20040720,023601,622817,33.321500,-119.665500,15.375,33.434,NaN,NaN
20040720,023631,622847,33.321500,-119.665333,15.373,33.433,NaN,NaN
20040720,023701,622877,33.321667,-119.665167,15.374,33.432,NaN,NaN
20040720,023731,622907,33.321833,-119.665167,15.378,33.435,NaN,NaN
20040720,023801,622937,33.321833,-119.665167,15.426,33.431,NaN,NaN
20040720,023831,622967,33.322000,-119.665167,15.477,33.431,NaN,NaN
20040720,023901,622997,33.322000,-119.665000,15.508,33.431,NaN,NaN
20040720,023931,623027,33.322000,-119.665000,15.509,33.432,NaN,NaN
20040720,024001,623057,33.321833,-119.664833,15.480,33.433,NaN,NaN
20040720,024031,623087,33.321833,-119.664500,15.443,33.435,NaN,NaN
20040720,024101,623117,33.322000,-119.664333,15.471,33.434,NaN,NaN
20040720,024131,623147,33.322000,-119.664333,15.507,33.435,NaN,NaN
20040720,024201,623177,33.322000,-119.664333,15.513,33.435,NaN,NaN
20040720,024231,623207,33.322167,-119.664167,15.519,33.434,NaN,NaN
20040720,024301,623237,33.322167,-119.664167,15.528,33.433,NaN,NaN
20040720,024331,623267,33.322167,-119.664167,15.533,33.432,NaN,NaN
20040720,024401,623297,33.322000,-119.664167,15.533,33.432,NaN,NaN
20040720,024431,623327,33.322000,-119.664333,15.546,33.433,NaN,NaN
20040720,024501,623357,33.321833,-119.664500,15.550,33.434,NaN,NaN
20040720,024531,623387,33.321667,-119.664667,15.529,33.435,NaN,NaN
20040720,024601,623417,33.321667,-119.664833,15.515,33.435,NaN,NaN
20040720,024631,623447,33.321500,-119.665167,15.479,33.438,NaN,NaN
20040720,024701,623477,33.321500,-119.665333,15.379,33.438,NaN,NaN
20040720,024731,623507,33.321333,-119.665500,15.402,33.434,NaN,NaN
20040720,024801,623537,33.321167,-119.665667,15.443,33.433,13.572,NaN
20040720,024831,623567,33.321000,-119.665833,15.448,33.434,NaN,NaN
20040720,024901,623597,33.320833,-119.666000,15.451,33.436,NaN,NaN
20040720,024931,623627,33.320667,-119.666167,15.402,33.435,NaN,NaN
20040720,025001,623657,33.320500,-119.666500,15.361,33.438,NaN,NaN
20040720,025031,623687,33.320333,-119.666667,15.322,33.437,NaN,NaN
20040720,025101,623717,33.320167,-119.667000,15.295,33.441,NaN,NaN
20040720,025131,623747,33.320000,-119.667167,15.277,33.439,NaN,NaN
20040720,025201,623777,33.320000,-119.667500,15.290,33.436,NaN,NaN
20040720,025231,623807,33.319833,-119.667833,15.288,33.438,NaN,NaN
20040720,025301,623837,33.319667,-119.668000,15.277,33.438,NaN,NaN
20040720,025331,623867,33.319667,-119.668333,15.278,33.438,NaN,NaN
20040720,025401,623897,33.319500,-119.668500,15.271,33.438,NaN,NaN
20040720,025431,623927,33.319333,-119.668667,15.211,33.441,NaN,NaN
20040720,025501,623957,33.319167,-119.668833,15.157,33.444,NaN,NaN
20040720,025531,623987,33.319167,-119.668833,15.158,33.438,NaN,NaN